Location: Azul
(36.7830°S, 59.8500°W)
Time: 09:50:30
(UTC-03:00)

UKube-1 - Pass Details

Date: 27 October 2021
Orbit: 611 x 617 km, 98.4° (Epoch: 07 December)

Event Time Altitude Azimuth Distance (km) Brightness Sun altitude
Exits shadow 20:46:01 23° 35° (NE) 1,329 ? -15.2°
Maximum altitude 20:48:33 58° 106° (ESE) 731 ? -15.6°
Drops below altitude 10° 20:52:50 10° 184° (S) 2,005 ? -16.4°
Sets 20:55:04 0° 188° (S) 2,918 ? -16.8°
